[[{"header":{"parameterUnit":"m.s-1","parameterCategory":1,"la1":30.2991,"la2":30.254,"lo1":-89.0895,"lo2":-89.0444,"dy":0.0017,"dx":0.0017,"nx":28,"ny":28,"refTime":"2024-03-17T09:00:00:Z","depth":0,"parameterNumber":2,"parameterNumberName":"U-component_of_WINDS"},"data":[0,0,0,0,0,0,0,0,0,0,0,0,0,0,0,0,0,0,0,0,0,0,0,0,0,0,0,0,0,0,0,0,0,0,0,0,0,0,0,0,0,0,0,0,0,0,0,0,0,0,0,0,0,0,0,0,0,0,1.0027,1.0026,0,0.9958,0.9958,0.9957,0.9935,0.9936,0.9936,0.9936,0.9862,0.986,0.9858,0,0,0,0,0,0,0,0,0,0,0,0,0,1.0135,1.0133,1.0027,1.0026,1.0025,0.9959,0.9958,0.9957,0.9935,0.9936,0.9936,0.9936,0.9863,0.986,0.9858,0,0,0,0,0,0,0,0,0,0,0,0,0,1.008,1.0133,1.0027,1.0006,1.0004,0.9959,0.9958,0.9956,0.9935,0.9936,0.9936,0.9937,0.9864,0.9861,0.9857,0.9826,0,0,0.9847,0.9845,0,0,0,0,0,0,0,0,1.0083,1.0076,1.001,1.0008,1.0005,0.9956,0.9969,0.9913,0.9935,0.9961,0.9936,0.9937,0.9893,0.9887,0.9873,0.9823,0.982,0.9846,0.9844,0.9843,0.9842,0,0,0,0,0,0,0,1.0087,1.0078,1.0,1.0009,1.0006,1.0,0.9992,0.9958,0.9925,0.9959,0.9957,0.995,0.9891,0.9876,0.9871,0.9818,0.9847,0.9843,0.9841,0.984,0.974,0.9739,0,0,0,0,0,0,1.0094,1.0082,1.0002,0.9998,1.0046,0.9997,0.9989,0.9971,0.9925,0.9919,0.9949,0.9949,0.9882,0.9875,0.9868,0.9829,0.9843,0.984,0.9838,0.974,0.974,0.9739,0,0,0,0,0,0,1.0097,1.0088,1.0004,1.0039,1.0028,0.9995,0.9975,0.9969,0.9954,0.9918,0.9912,0.994,0.9882,0.9873,0.9837,0.9826,0.9838,0.9835,0.9741,0.974,0.9739,0.9751,0,0,0,0,0,0,1.01,1.0089,1.0077,1.0039,1.0026,0.9975,0.9974,0.9968,0.9949,0.9948,0.9908,0.9902,0.9882,0.9842,0.9834,0.9822,0.9832,0.9742,0.9741,0.974,0.9751,0.975,0.9749,0,0,0,0,0,1.0104,1.0082,1.0077,1.0067,1.0012,0.9975,0.9967,0.9946,0.9948,0.9936,0.9913,0.9903,0.9829,0.9839,0.9829,0.9816,0.9742,0.9741,0.974,0.9751,0.975,0.9749,0,0,0,0,0,0,1.0117,1.0076,1.007,1.0035,1.0009,0.9971,0.9955,0.9946,0.9917,0.9917,0.9891,0.9882,0.9848,0.9828,0.984,0.9784,0.9785,0.9782,0.9798,0.9796,0.9796,0.98,0.983,0,0,0,0,0,1.0117,1.0092,1.0057,1.0029,1.0017,0.9988,0.9971,0.9958,0.9929,0.9917,0.9891,0.9862,0.9833,0.9813,0.9784,0.9749,0.9739,0.9735,0.9734,0.9733,0.973,0.971,0.9708,0.9734,0.9734,0.9734,0,0,1.0114,1.0089,1.0074,1.0031,1.0009,0.9983,0.9979,0.9951,0.9931,0.9912,0.9877,0.9857,0.9823,0.9788,0.977,0.977,0.9721,0.9732,0.9732,0.9729,0.9708,0.9706,0.9704,0.9734,0.9734,0.9734,0,0,1.0096,1.0075,1.005,1.0028,0.9996,0.9977,0.9971,0.9935,0.9922,0.9887,0.9873,0.9848,0.9797,0.9774,0.9755,0.973,0.972,0.9722,0.9717,0.9698,0.9695,0.9693,0.9684,0.9681,0.9719,0.9719,0.9719,0,1.0096,1.0057,1.0037,1.0011,0.9992,0.9976,0.995,0.993,0.9889,0.9876,0.9877,0.9814,0.979,0.9749,0.9743,0.9729,0.972,0.9725,0.9698,0.9695,0.9693,0.9684,0.968,0.9719,0.9719,0.9719,0.9719,0,1.0059,1.0032,1.0016,0.9979,0.9958,0.9932,0.9907,0.9889,0.9878,0.9859,0.9823,0.9795,0.9759,0.9749,0.9736,0.9706,0.9707,0.9703,0.9704,0.9691,0.9682,0.9678,0.972,0.972,0.972,0.972,0,0,1.0046,1.0,0.9994,0.9977,0.994,0.9919,0.9892,0.9859,0.9844,0.9816,0.9792,0.9751,0.9748,0.9727,0.9712,0.9695,0.9677,0.9694,0.9692,0.9691,0.9641,0.9644,0.964,0.9671,0.967,0.9669,0.9644,0,1.0022,0.9975,0.9957,0.9918,0.9892,0.9878,0.9854,0.9829,0.9811,0.9786,0.9766,0.9737,0.9736,0.9723,0.9706,0.9683,0.9667,0.9685,0.9647,0.9646,0.9655,0.9635,0.9637,0.9615,0.964,0.964,0.9639,0,0.9988,0.9963,0.9921,0.9889,0.9878,0.9857,0.9826,0.9803,0.9774,0.9762,0.974,0.9727,0.9697,0.9701,0.966,0.9673,0.9656,0.9643,0.9642,0.9636,0.9641,0.9629,0.9607,0.9603,0.9634,0.9634,0.9634,0,0.9982,0.9937,0.9907,0.9893,0.9854,0.984,0.9823,0.9795,0.9777,0.975,0.9737,0.9707,0.9689,0.9665,0.9644,0.9649,0.9604,0.9607,0.9593,0.9593,0.9583,0.9584,0.9558,0.9574,0.9574,0.9574,0.9574,0,0.9957,0.9932,0.9903,0.9885,0.9856,0.9836,0.9808,0.979,0.9765,0.9742,0.9728,0.9706,0.9679,0.9654,0.9637,0.9605,0.9598,0.9587,0.9582,0.9587,0.9589,0.9575,0.9576,0.9573,0.9574,0.9574,0.9574,0,0.9945,0.9925,0.9891,0.9858,0.9849,0.983,0.9801,0.9782,0.9765,0.9735,0.9727,0.9699,0.9669,0.9646,0.9605,0.9594,0.956,0.9556,0.957,0.9568,0.9555,0.9557,0.9519,0.9513,0.9534,0.9534,0.9534,0,0.993,0.9911,0.9877,0.9861,0.9845,0.9819,0.9801,0.9781,0.9762,0.9729,0.9714,0.9683,0.9657,0.9609,0.9584,0.9553,0.9548,0.9537,0.9543,0.9549,0.9547,0.9548,0.9546,0.9535,0.9535,0.9535,0.9535,0,0.9905,0.9897,0.9872,0.9844,0.9823,0.98,0.9776,0.9764,0.9739,0.9719,0.9688,0.9668,0.9629,0.9598,0.9565,0.9547,0.9536,0.9534,0.9529,0.9533,0.9542,0.9537,0.9567,0.9534,0.9534,0.9534,0.9534,0.9534,0.9891,0.9873,0.9847,0.982,0.98,0.9779,0.9759,0.974,0.9715,0.9682,0.9672,0.964,0.9612,0.9568,0.9549,0.9524,0.9523,0.9516,0.9514,0.9513,0.9513,0.9548,0.9518,0.9518,0.9518,0.9518,0.9518,0,0.9865,0.9848,0.9823,0.9791,0.977,0.9765,0.9738,0.972,0.9694,0.9669,0.9645,0.961,0.958,0.9554,0.9523,0.9508,0.9503,0.9501,0.9501,0.9497,0.9515,0.9522,0.9506,0.9506,0.9506,0.9506,0.9506,0.9506,0.9849,0.9819,0.9808,0.9768,0.975,0.9721,0.9706,0.9686,0.9667,0.9629,0.9605,0.9589,0.9564,0.9531,0.9504,0.9497,0.9486,0.9485,0.9476,0.9494,0.9495,0.9497,0.9503,0.9483,0.9483,0.946,0.946,0.946]},{"header":{"parameterUnit":"m.s-1","parameterCategory":1,"la1":30.2991,"la2":30.254,"lo1":-89.0895,"lo2":-89.0444,"dy":0.0017,"dx":0.0017,"nx":28,"ny":28,"refTime":"2024-03-17T09:00:00:Z","depth":0,"parameterNumber":3,"parameterNumberName":"V-component_of_WINDS"},"data":[0,0,0,0,0,0,0,0,0,0,0,0,0,0,0,0,0,0,0,0,0,0,0,0,0,0,0,0,0,0,0,0,0,0,0,0,0,0,0,0,0,0,0,0,0,0,0,0,0,0,0,0,0,0,0,0,0,0,-7.0805,-7.0807,0,-7.0928,-7.0929,-7.0931,-7.0866,-7.0863,-7.086,-7.0857,-7.0977,-7.0983,-7.0989,0,0,0,0,0,0,0,0,0,0,0,0,0,-7.0512,-7.0517,-7.0805,-7.0807,-7.0808,-7.0928,-7.0929,-7.0931,-7.0867,-7.0863,-7.0859,-7.0855,-7.0975,-7.0982,-7.099,0,0,0,0,0,0,0,0,0,0,0,0,0,-7.0637,-7.0519,-7.0805,-7.0791,-7.0791,-7.0927,-7.0929,-7.0931,-7.0868,-7.0863,-7.0858,-7.0853,-7.0972,-7.0981,-7.0991,-7.1146,0,0,-7.1019,-7.1023,0,0,0,0,0,0,0,0,-7.063,-7.0648,-7.0791,-7.0792,-7.0792,-7.0877,-7.087,-7.1003,-7.0869,-7.0838,-7.0857,-7.0851,-7.0947,-7.0958,-7.0992,-7.1152,-7.1157,-7.102,-7.1026,-7.103,-7.1032,0,0,0,0,0,0,0,-7.0621,-7.0642,-7.0853,-7.0794,-7.0794,-7.0777,-7.0789,-7.0895,-7.0918,-7.0841,-7.0836,-7.0852,-7.0946,-7.0983,-7.0994,-7.1159,-7.102,-7.1028,-7.1034,-7.1037,-7.1454,-7.1459,0,0,0,0,0,0,-7.0614,-7.0635,-7.085,-7.0857,-7.0698,-7.0786,-7.08,-7.0855,-7.0917,-7.0922,-7.0856,-7.0849,-7.0969,-7.0983,-7.0998,-7.1186,-7.103,-7.1038,-7.1044,-7.1448,-7.1455,-7.1461,0,0,0,0,0,0,-7.0608,-7.0634,-7.0845,-7.0745,-7.0771,-7.0797,-7.0858,-7.086,-7.0896,-7.0929,-7.0932,-7.0889,-7.0966,-7.0985,-7.1111,-7.1189,-7.1043,-7.1051,-7.1442,-7.1451,-7.1458,-7.1562,0,0,0,0,0,0,-7.06,-7.0632,-7.0693,-7.0747,-7.0776,-7.0957,-7.0863,-7.0866,-7.0913,-7.0904,-7.0961,-7.0966,-7.0964,-7.1097,-7.112,-7.1199,-7.1058,-7.1435,-7.1446,-7.1455,-7.1552,-7.1573,-7.1591,0,0,0,0,0,-7.059,-7.0715,-7.0696,-7.0722,-7.0853,-7.0962,-7.0978,-7.0975,-7.092,-7.098,-7.1001,-7.0964,-7.1177,-7.111,-7.1136,-7.1219,-7.143,-7.1443,-7.1455,-7.1543,-7.1569,-7.159,0,0,0,0,0,0,-7.0667,-7.0722,-7.0701,-7.0849,-7.0901,-7.0951,-7.1027,-7.1002,-7.1069,-7.1058,-7.1049,-7.1063,-7.1194,-7.1218,-7.1144,-7.1374,-7.1295,-7.1313,-7.1353,-7.1378,-7.1397,-7.1389,-7.1066,0,0,0,0,0,-7.0702,-7.0787,-7.083,-7.0955,-7.0983,-7.1001,-7.1048,-7.1041,-7.1094,-7.1116,-7.1146,-7.1198,-7.1276,-7.1328,-7.1402,-7.1554,-7.1566,-7.1624,-7.1644,-7.166,-7.1676,-7.1759,-7.1786,-7.1501,-7.1501,-7.1501,0,0,-7.0773,-7.0814,-7.0868,-7.0972,-7.1012,-7.11,-7.102,-7.1115,-7.118,-7.1129,-7.1251,-7.1275,-7.1332,-7.1473,-7.1536,-7.1497,-7.1757,-7.1675,-7.1688,-7.1695,-7.1775,-7.1802,-7.1826,-7.151,-7.1508,-7.1507,0,0,-7.0949,-7.0988,-7.1098,-7.114,-7.1203,-7.1214,-7.124,-7.1294,-7.1309,-7.1431,-7.1396,-7.1471,-7.1606,-7.1649,-7.1689,-7.1882,-7.1851,-7.1906,-7.2009,-7.2091,-7.2113,-7.2133,-7.2203,-7.2229,-7.1922,-7.1922,-7.1922,0,-7.103,-7.1162,-7.1157,-7.1257,-7.1304,-7.1265,-7.1376,-7.1416,-7.1499,-7.1532,-7.1487,-7.1658,-7.1693,-7.1844,-7.1891,-7.1924,-7.1954,-7.19,-7.211,-7.213,-7.2149,-7.2216,-7.2242,-7.1928,-7.1928,-7.1927,-7.1926,0,-7.1259,-7.1351,-7.1432,-7.1516,-7.1572,-7.1677,-7.1687,-7.1744,-7.1732,-7.1748,-7.1873,-7.1914,-7.1997,-7.2032,-7.202,-7.2181,-7.2156,-7.2111,-7.2032,-7.2183,-7.2246,-7.2271,-7.1938,-7.1935,-7.1933,-7.1932,0,0,-7.1487,-7.1568,-7.1598,-7.1636,-7.1703,-7.1773,-7.1876,-7.1959,-7.2008,-7.2066,-7.2152,-7.2268,-7.2229,-7.2273,-7.2266,-7.2338,-7.249,-7.2285,-7.2286,-7.2323,-7.2672,-7.2706,-7.2736,-7.2469,-7.2474,-7.2478,-7.2668,0,-7.1668,-7.1851,-7.185,-7.2018,-7.2104,-7.2068,-7.2157,-7.2207,-7.2224,-7.2298,-7.2316,-7.2399,-7.2339,-7.2367,-7.2436,-7.2457,-7.2561,-7.2443,-7.2549,-7.2553,-7.2538,-7.2769,-7.2805,-7.2982,-7.2692,-7.2696,-7.2699,0,-7.1905,-7.1974,-7.2151,-7.2207,-7.2243,-7.2324,-7.24,-7.2472,-7.2527,-7.2534,-7.2586,-7.2568,-7.2671,-7.2588,-7.2731,-7.2651,-7.2694,-7.2711,-7.2718,-7.2729,-7.2636,-7.2787,-7.3038,-7.3066,-7.2738,-7.2735,-7.2732,0,-7.2056,-7.2192,-7.2317,-7.235,-7.2418,-7.2476,-7.2506,-7.2557,-7.2607,-7.2673,-7.2706,-7.2782,-7.2825,-7.2884,-7.2886,-7.2826,-7.3031,-7.2948,-7.304,-7.304,-7.3086,-7.3083,-7.3349,-7.3111,-7.3111,-7.311,-7.311,0,-7.226,-7.237,-7.2386,-7.2463,-7.2585,-7.2583,-7.2703,-7.2728,-7.2774,-7.2854,-7.2826,-7.2901,-7.29,-7.2976,-7.2978,-7.3097,-7.3116,-7.3124,-7.3124,-7.3128,-7.3127,-7.3157,-7.3145,-7.3117,-7.3116,-7.3114,-7.3113,0,-7.2449,-7.2464,-7.2598,-7.2652,-7.2668,-7.2756,-7.2801,-7.2873,-7.2888,-7.299,-7.3013,-7.3036,-7.3125,-7.3134,-7.3235,-7.3237,-7.3381,-7.3366,-7.3364,-7.3362,-7.3454,-7.3446,-7.375,-7.379,-7.3524,-7.3527,-7.3529,0,-7.2579,-7.2664,-7.2727,-7.278,-7.2815,-7.29,-7.2952,-7.2952,-7.3007,-7.3078,-7.3142,-7.3228,-7.3297,-7.344,-7.3465,-7.3543,-7.3531,-7.3632,-7.3543,-7.3545,-7.3535,-7.3531,-7.354,-7.365,-7.3653,-7.3655,-7.3657,0,-7.2809,-7.2813,-7.289,-7.2971,-7.3034,-7.3097,-7.3156,-7.32,-7.3207,-7.327,-7.3362,-7.3416,-7.3522,-7.3608,-7.3685,-7.3714,-7.3688,-7.3685,-7.3711,-7.3717,-7.3713,-7.3718,-7.3413,-7.3679,-7.3676,-7.3675,-7.3674,-7.3673,-7.2974,-7.3048,-7.3105,-7.3193,-7.3237,-7.3293,-7.3365,-7.339,-7.3467,-7.3555,-7.3549,-7.3651,-7.3704,-7.3806,-7.3841,-7.392,-7.3886,-7.3922,-7.3932,-7.3942,-7.3952,-7.3699,-7.3933,-7.3932,-7.3932,-7.3931,-7.3931,0,-7.3204,-7.3239,-7.3319,-7.3404,-7.3473,-7.3443,-7.3507,-7.3566,-7.3657,-7.371,-7.3779,-7.3885,-7.3969,-7.4001,-7.4082,-7.4139,-7.4129,-7.4161,-7.4157,-7.4165,-7.3977,-7.3948,-7.4168,-7.4168,-7.4168,-7.4168,-7.4168,-7.4168,-7.3332,-7.3456,-7.3467,-7.3614,-7.3647,-7.3749,-7.3788,-7.3839,-7.3882,-7.4003,-7.4073,-7.4094,-7.4139,-7.4223,-7.4299,-7.4306,-7.4338,-7.4375,-7.4377,-7.4202,-7.4178,-7.4155,-7.4127,-7.4382,-7.4382,-7.4559,-7.456,-7.4562]}]]